Debrecen, Hungary

4:09 AM CET on March 25, 2017 (GMT +0100)
Debrecen

Weather History for LHDC - May, 2014

Change the Weather History Date:

Friday, May 16, 2014

  Actual Average Record
Temperature  
Mean Temperature 58 °F -  
Max Temperature 63 °F 74 °F - ()
Min Temperature 52 °F 53 °F - ()
Degree Days  
Heating Degree Days 8    
Growing Degree Days 8 (Base 50)    
Moisture  
Dew Point 51 °F    
Average Humidity 79    
Maximum Humidity 98    
Minimum Humidity 49    
Precipitation  
Precipitation 0.03 in 0.09 in - ()
Sea Level Pressure  
Sea Level Pressure 29.77 in    
Wind  
Wind Speed 7 mph ()    
Max Wind Speed 13 mph    
Max Gust Speed -    
Visibility 9.3 miles    
Events Rain    
T = Trace of Precipitation, MM = Missing Value Source: Averaged Metar Reports

Daily Weather History Graph

Daily Weather History Graph

Search for Another Location

Airport or City:

Trip Planner

Search our weather history database for the weather conditions in past years. The results will help you decide how hot, cold, wet, or windy it might be!

Date:

Astronomy

May. 16, 2014 Rise Set
Actual Time 4:55 AM CEST 8:04 PM CEST
Civil Twilight 4:19 AM CEST 8:41 PM CEST
Nautical Twilight 3:31 AM CEST 9:29 PM CEST
Astronomical Twilight 2:32 AM CEST 10:29 PM CEST
Moon 9:54 PM CEST (5/16) 6:20 AM CEST (5/16)
Length of Visible Light 16h 22m
Length of Day
15h 09m
Waning Gibbous, 97% of the Moon is Illuminated
May 16
Waning Gibbous
May 21
Last Quarter
May 28
New
Jun 5
First Quarter
Jun 13
Full

Hourly Weather History & Observations

Time (CEST) Temp. Dew Point Humidity Pressure Visibility Wind Dir Wind Speed Gust Speed Precip Events Conditions
12:00 AM 55 °F 52 °F 86% 29.64 in - NNE 13.4 mph - -  
1:00 AM 54 °F 52 °F 91% 29.65 in - NNE 11.2 mph - -  
2:00 AM 54 °F 52 °F 92% 29.65 in - NNE 8.9 mph - -  
3:00 AM 53 °F 53 °F 98% 29.66 in - NNE 11.2 mph - -  
4:00 AM 53 °F 52 °F 96% 29.66 in - NNE 8.9 mph - -  
4:45 AM 53.6 °F 51.8 °F 94% 29.65 in 6.2 mi NNE 10.4 mph - N/A   Mostly Cloudy
5:00 AM 53 °F 52 °F 94% 29.67 in 19 mi NNE 8.9 mph - -   Partly Cloudy
5:45 AM 53.6 °F 51.8 °F 94% 29.68 in 6.2 mi NE 8.1 mph - N/A   Mostly Cloudy
6:00 AM 53 °F 51 °F 92% 29.68 in 19 mi NE 8.9 mph - -   Partly Cloudy
6:15 AM 53.6 °F 51.8 °F 94% 29.68 in 6.2 mi NE 8.1 mph - N/A   Mostly Cloudy
6:45 AM 53.6 °F 51.8 °F 94% 29.71 in 6.2 mi NE 8.1 mph - N/A   Mostly Cloudy
7:00 AM 54 °F 51 °F 87% 29.70 in 19 mi NE 8.9 mph - -   Partly Cloudy
7:00 AM - - N/A% - 6.2 mi East 9.2 mph - N/A   Mostly Cloudy
7:15 AM 55.4 °F 51.8 °F 88% 29.71 in 6.2 mi East 5.8 mph - N/A   Mostly Cloudy
7:45 AM 55.4 °F 50.0 °F 82% 29.71 in 6.2 mi East 8.1 mph - N/A   Mostly Cloudy
8:00 AM 56 °F 51 °F 76% 29.72 in 19 mi East 8.9 mph - -   Partly Cloudy
8:15 AM 55.4 °F 51.8 °F 88% 29.71 in 6.2 mi SSE 8.1 mph - N/A   Mostly Cloudy
8:40 AM 53.6 °F 51.8 °F 94% 29.74 in 6.2 mi South 8.1 mph - N/A   Mostly Cloudy
8:45 AM 53.6 °F 51.8 °F 94% 29.74 in 6.2 mi South 8.1 mph - N/A   Mostly Cloudy
8:54 AM - - N/A% - 6.2 mi South 9.2 mph - N/A   Mostly Cloudy
9:00 AM 54 °F 51 °F 86% 29.74 in 16 mi South 8.9 mph - -   Partly Cloudy
9:15 AM 53.6 °F 51.8 °F 94% 29.74 in 6.2 mi South 5.8 mph - N/A   Mostly Cloudy
9:45 AM 53.6 °F 50.0 °F 88% 29.77 in 6.2 mi South 5.8 mph - N/A   Mostly Cloudy
10:00 AM 54 °F 51 °F 85% 29.77 in 16 mi South 4.5 mph - -   Partly Cloudy
10:00 AM - - N/A% - 6.2 mi South 9.2 mph - N/A   Mostly Cloudy
10:15 AM 55.4 °F 51.8 °F 88% 29.77 in 6.2 mi South 4.6 mph - N/A   Mostly Cloudy
10:45 AM 57.2 °F 51.8 °F 82% 29.77 in 6.2 mi South 3.5 mph - N/A   Mostly Cloudy
11:00 AM 56 °F 51 °F 80% 29.78 in 19 mi South 4.5 mph - -   Partly Cloudy
11:15 AM 57.2 °F 51.8 °F 82% 29.80 in 6.2 mi SSW 5.8 mph - N/A   Mostly Cloudy
11:45 AM 57.2 °F 51.8 °F 82% 29.80 in 6.2 mi South 4.6 mph - N/A   Mostly Cloudy
12:00 PM 58 °F 51 °F 71% 29.79 in 16 mi South 4.5 mph - -   Partly Cloudy
12:15 PM 59.0 °F 51.8 °F 77% 29.80 in 6.2 mi WSW 4.6 mph - N/A   Scattered Clouds
12:45 PM 59.0 °F 51.8 °F 77% 29.80 in 6.2 mi SW 5.8 mph - N/A   Scattered Clouds
1:00 PM 58 °F 51 °F 71% 29.80 in 16 mi SW 6.7 mph - -   Partly Cloudy
1:00 PM - - N/A% - 6.2 mi WSW 6.9 mph - N/A   Mostly Cloudy
1:15 PM 57.2 °F 51.8 °F 82% 29.80 in 5.0 mi SSW 8.1 mph - N/A Rain Light Rain Showers
1:45 PM 55.4 °F 50.0 °F 82% 29.83 in 6.2 mi South 5.8 mph - N/A Rain Light Rain Showers
2:00 PM 56 °F 50 °F 75% 29.81 in 6 mi South 6.7 mph - - Rain Light Rain Showers
2:15 PM 59.0 °F 51.8 °F 77% 29.80 in 6.2 mi SSW 5.8 mph - N/A   Scattered Clouds
2:45 PM 60.8 °F 48.2 °F 63% 29.80 in 6.2 mi SSW 5.8 mph - N/A   Scattered Clouds
3:00 PM 61 °F 49 °F 54% 29.80 in 16 mi SSW 4.5 mph - - Rain Light Rain Showers
3:15 PM 60.8 °F 48.2 °F 63% 29.80 in 6.2 mi SW 4.6 mph - N/A   Scattered Clouds
3:45 PM 62.6 °F 50.0 °F 63% 29.80 in 6.2 mi WSW 6.9 mph - N/A   Mostly Cloudy
4:00 PM 63 °F 51 °F 55% 29.81 in 16 mi WSW 6.7 mph - -   Partly Cloudy
4:45 PM 64.4 °F 50.0 °F 59% 29.83 in 6.2 mi SW 2.3 mph - N/A   Scattered Clouds
5:00 PM 64 °F 49 °F 49% 29.82 in 16 mi SW 2.2 mph - -   Partly Cloudy
5:15 PM 62.6 °F 50.0 °F 63% 29.83 in 6.2 mi WSW 5.8 mph - N/A   Mostly Cloudy
5:45 PM 60.8 °F 50.0 °F 68% 29.83 in 6.2 mi SW 5.8 mph - N/A   Scattered Clouds
6:00 PM - - N/A% - - North - - N/A   Unknown
6:15 PM 60.8 °F 48.2 °F 63% 29.83 in 6.2 mi WSW 4.6 mph - N/A   Mostly Cloudy
6:45 PM 60.8 °F 50.0 °F 68% 29.86 in 6.2 mi West 3.5 mph - N/A   Scattered Clouds
7:00 PM 61 °F 50 °F 58% 29.84 in 19 mi West 4.5 mph - -   Partly Cloudy
7:15 PM 59.0 °F 50.0 °F 72% 29.86 in 6.2 mi West 3.5 mph - N/A   Scattered Clouds
7:45 PM 59.0 °F 51.8 °F 77% 29.86 in 6.2 mi West 3.5 mph - N/A   Partly Cloudy
8:00 PM 58 °F 51 °F 70% 29.86 in 25 mi West 2.2 mph - -   Partly Cloudy
8:15 PM 57.2 °F 50.0 °F 77% 29.86 in 6.2 mi West 4.6 mph - N/A   Partly Cloudy
8:45 PM 57.2 °F 50.0 °F 77% 29.86 in - WNW 3.5 mph - N/A   Clear
9:00 PM 57 °F 50 °F 70% 29.87 in 19 mi WNW 4.5 mph - -   Partly Cloudy
10:00 PM 55 °F 50 °F 78% 29.88 in - WNW 6.7 mph - -  
11:00 PM 54 °F 51 °F 87% 29.88 in - West 6.7 mph - -